Location: Alpha Ridge Park
(39.3209°N, 76.9128°W)
Time: 00:36:31
(UTC-05:00)

Tiangong - Visible Passes

Search period start: 09 December 2023 00:00
Search period end: 19 December 2023 00:00
Orbit: 372 x 383 km, 41.5° (Epoch: 08 December)

Date Brightness Start Highest point End Pass type
(mag) Time Alt. Az. Time Alt. Az. Time Alt. Az.
14 Dec 0.6 06:32:57 10° SSW 06:35:20 20° SSE 06:37:44 10° E visible
15 Dec 1.0 05:32:35 10° SSE 05:33:34 11° SE 05:34:33 10° SE visible
16 Dec -0.5 06:05:03 10° SW 06:07:52 32° SSE 06:10:42 10° E visible
17 Dec 0.4 05:06:15 18° SE 05:06:15 18° SE 05:08:14 10° ESE visible
17 Dec -2.1 06:39:16 10° WSW 06:42:22 83° SSE 06:45:29 10° ENE visible
18 Dec -1.5 05:39:47 43° SSW 05:40:21 50° SSE 05:43:22 10° E visible
